Stations météo

réclame
Mon MeteoGroup
Marseille/Marignane, France (7650): Température de l'air & dewpoint: 12.06.2018 13:00:00 - 18.06.2018 13:00:00 (CEST)Marseille/Marignane, France (7650): Température de l'air 5cm: 12.06.2018 13:00:00 - 18.06.2018 13:00:00 (CEST)Marseille/Marignane, France (7650): Température de l'air -20cm & Température de l'air -100cm: 12.06.2018 13:00:00 - 18.06.2018 13:00:00 (CEST)Marseille/Marignane, France (7650): Vitesse du vent & gusts: 12.06.2018 13:00:00 - 18.06.2018 13:00:00 (CEST)Marseille/Marignane, France (7650): Direction du vent: 12.06.2018 13:00:00 - 18.06.2018 13:00:00 (CEST)Marseille/Marignane, France (7650): reduced air pressure: 12.06.2018 13:00:00 - 18.06.2018 13:00:00 (CEST)Marseille/Marignane, France (7650): visibility: 12.06.2018 13:00:00 - 18.06.2018 13:00:00 (CEST)Marseille/Marignane, France (7650): Ensoleillement: 12.06.2018 13:00:00 - 18.06.2018 13:00:00 (CEST)Marseille/Marignane, France (7650): Quantités de précipitations: 12.06.2018 13:00:00 - 18.06.2018 13:00:00 (CEST)
Date & Time tt [°C] td [°C] tt 5cm [°C] tt -20cm [°C] tt -100cm [°C] ff [km/h] ff [knt] fx [km/h] fx [knt] dd ppp [hPa] vv [km] sd [min] rr [mm]
18.06.2018 13:00:00 27,7 13,2 32,0 24,2 19,2 22 12 34 19 NW 1017,5 23 60 0,0
18.06.2018 12:00:00 26,6 12,3 30,3 23,5 19,2 25 13 40 22 NNW 1017,4 26 60 0,0
18.06.2018 11:00:00 25,4 11,6 28,0 23,0 19,1 27 15 41 22 NNW 1017,4 26 60 0,0
18.06.2018 10:00:00 24,2 11,5 26,2 22,7 19,1 26 14 38 20 NNW 1017,3 26 60 0,0
18.06.2018 09:00:00 22,7 10,8 23,7 22,7 19,1 27 14 59 32 N 1017,2 26 60 0,0
18.06.2018 08:00:00 21,2 10,4 21,1 22,9 19,1 31 17 51 28 NNW 1017,0 28 60 0,0
18.06.2018 07:00:00 20,0 10,4 19,3 23,2 19,1 34 18 50 27 NNW 1016,8 30 38 0,0
18.06.2018 06:00:00 20,0 11,0 19,4 23,6 19,1 34 18 48 26 NNW 1016,5 60 0 0,0
18.06.2018 05:00:00 20,3 10,7 19,6 24,0 19,1 28 15 46 25 NNW 1016,1 60 0 0,0
18.06.2018 04:00:00 20,7 11,1 20,1 24,4 19,1 30 16 51 28 NW 1016,0 60 0 0,0
18.06.2018 03:00:00 21,1 11,1 20,6 24,8 19,1 31 17 50 27 NW 1016,1 60 0 0,0
18.06.2018 02:00:00 21,6 11,0 21,2 25,3 19,1 35 19 54 29 NW 1016,2 60 0 0,0
18.06.2018 01:00:00 22,2 11,6 21,7 25,8 19,1 35 19 58 31 NW 1016,5 60 0 0,0
18.06.2018 00:00:00 22,8 12,1 22,4 26,3 19,1 40 21 58 32 NW 1016,2 50 0 0,0
17.06.2018 23:00:00 23,6 11,9 23,1 26,8 19,1 35 19 53 29 NW 1016,4 60 0 0,0
17.06.2018 22:00:00 24,4 11,7 24,0 27,3 19,1 34 18 54 29 NW 1016,0 60 0 0,0
17.06.2018 21:00:00 25,4 11,9 25,5 27,7 19,1 33 18 58 32 NW 1015,5 39 57 0,0
17.06.2018 20:00:00 26,4 12,5 27,2 27,9 19,1 44 24 59 32 NW 1015,2 50 60 0,0
17.06.2018 19:00:00 26,3 13,1 27,2 27,9 19,1 35 19 54 29 NW 1015,4 36 45 0,0
17.06.2018 18:00:00 28,6 14,1 30,5 27,7 19,1 34 18 50 27 NW 1014,9 17 58 0,0
17.06.2018 17:00:00 29,2 14,6 30,0 27,4 19,1 35 19 45 25 WNW 1015,0 19 41 0,0
17.06.2018 16:00:00 28,6 14,8 30,5 26,8 19,0 31 17 45 24 WNW 1015,3 20 52 0,0
17.06.2018 15:00:00 28,8 14,6 32,4 26,2 19,0 29 15 45 24 WNW 1015,1 20 55 0,0
17.06.2018 14:00:00 28,9 15,1 33,5 25,3 19,0 32 17 42 23 WNW 1015,1 21 60 0,0
17.06.2018 13:00:00 28,4 14,2 32,3 24,4 19,0 27 14 44 24 NW 1015,2 20 60 0,0
17.06.2018 12:00:00 27,6 13,9 30,2 23,8 19,0 26 14 44 24 NW 1015,4 22 60 0,0
17.06.2018 11:00:00 25,9 13,7 28,2 23,3 19,0 31 17 45 24 NNW 1015,5 19 60 0,0
17.06.2018 10:00:00 24,6 13,5 26,2 23,1 19,0 34 19 52 28 NNW 1015,5 18 60 0,0
17.06.2018 09:00:00 23,3 12,9 24,3 23,1 19,0 31 17 44 24 NW 1015,5 36 60 0,0
17.06.2018 08:00:00 22,3 13,4 22,2 23,3 19,0 22 12 38 20 NW 1015,0 42 60 0,0
17.06.2018 07:00:00 21,4 13,8 20,5 23,6 19,0 25 14 37 20 NW 1014,6 33 38 0,0
17.06.2018 06:00:00 21,5 13,7 20,8 24,0 19,0 19 10 42 23 NW 1014,2 60 0 0,0
17.06.2018 05:00:00 22,2 14,1 20,7 24,3 19,0 26 14 41 22 NW 1014,1 60 0 0,0
17.06.2018 04:00:00 21,2 14,1 20,1 24,8 19,0 19 10 27 14 NW 1013,9 60 0 0,0
17.06.2018 03:00:00 21,3 14,2 20,7 25,2 19,0 18 10 37 20 NW 1013,7 60 0 0,0
17.06.2018 02:00:00 22,3 14,7 21,8 25,7 19,0 29 16 41 22 WNW 1013,8 49 0 0,0
17.06.2018 01:00:00 23,4 14,9 22,7 26,2 19,0 26 14 36 19 WNW 1013,8 37 0 0,0
17.06.2018 00:00:00 23,9 13,4 23,3 26,7 19,0 19 10 33 18 NW 1013,7 55 0 0,0
16.06.2018 23:00:00 24,8 13,0 23,6 27,3 18,9 23 12 34 18 NW 1013,6 60 0 0,0
16.06.2018 22:00:00 25,1 13,9 24,3 27,7 18,9 14 8 20 11 WNW 1013,3 60 0 0,0
16.06.2018 21:00:00 26,9 13,6 26,6 28,2 18,9 16 8 37 20 NW 1012,9 60 38 0,0
16.06.2018 20:00:00 27,6 12,0 28,1 28,6 18,9 21 11 39 21 NW 1012,6 46 5 0,0
16.06.2018 19:00:00 28,8 14,6 29,8 28,6 18,9 23 12 36 19 NW 1012,0 44 18 0,0
16.06.2018 18:00:00 30,3 14,4 34,2 28,3 18,9 19 10 29 15 W 1012,0 31 60 0,0
16.06.2018 17:00:00 30,6 14,7 35,2 27,7 18,9 20 11 26 14 W 1012,1 30 60 0,0
16.06.2018 16:00:00 30,1 15,8 33,9 26,9 19,0 13 7 29 15 W 1012,1 34 53 0,0
16.06.2018 15:00:00 29,4 15,1 33,7 25,9 18,9 18 10 28 15 SSW 1012,6 35 55 0,0
16.06.2018 14:00:00 29,6 14,2 34,2 24,9 18,9 16 9 24 13 W 1012,6 20 60 0,0
16.06.2018 13:00:00 29,6 15,7 32,7 24,0 18,9 19 10 28 15 WSW 1012,5 37 60 0,0
16.06.2018 12:00:00 27,4 15,7 30,9 23,1 18,9 20 11 27 15 W 1012,5 20 60 0,0
16.06.2018 11:00:00 25,2 15,2 29,0 22,4 18,9 13 7 19 11 WSW 1012,4 44 60 0,0
16.06.2018 10:00:00 23,5 14,8 25,0 22,1 18,9 10 5 15 8 WSW 1012,7 41 54 0,0
16.06.2018 09:00:00 21,5 13,9 24,6 22,1 18,9 6 4 19 10 N 1012,8 38 49 0,0
16.06.2018 08:00:00 20,7 13,9 20,6 22,3 18,9 0 0 9 5 N 1012,6 33 60 0,0
16.06.2018 07:00:00 18,1 13,4 16,1 22,6 18,9 5 3 12 6 SSE 1012,4 31 35 0,0
16.06.2018 06:00:00 18,8 13,0 16,6 23,0 18,9 9 5 18 10 N 1012,0 35 0 0,0
16.06.2018 05:00:00 19,3 13,7 15,5 23,4 18,9 10 5 14 8 N 1011,9 39 0 0,0
16.06.2018 04:00:00 20,1 13,3 16,9 23,8 18,9 6 3 12 6 N 1011,8 45 0 0,0
16.06.2018 03:00:00 20,9 13,3 19,8 24,2 18,9 9 5 14 8 NNW 1011,9 50 0 0,0
16.06.2018 02:00:00 21,1 13,8 19,9 24,7 18,9 8 5 21 11 N 1011,8 45 0 0,0
16.06.2018 01:00:00 22,2 13,5 20,9 25,2 18,9 15 8 26 14 NW 1011,8 54 0 0,0
16.06.2018 00:00:00 22,0 13,4 21,2 25,8 18,9 20 11 27 14 WNW 1011,7 58 0 0,0
15.06.2018 23:00:00 22,5 12,7 21,8 26,4 18,9 17 9 29 16 NW 1011,7 58 0 0,0
15.06.2018 22:00:00 23,8 12,4 23,2 26,9 18,9 18 10 34 18 NW 1011,6 59 0 0,0
15.06.2018 21:00:00 25,4 12,9 25,6 27,3 18,9 19 10 32 18 NW 1011,3 48 56 0,0
15.06.2018 20:00:00 27,4 12,6 29,0 27,4 18,9 27 15 33 18 WNW 1010,8 47 60 0,0
15.06.2018 19:00:00 28,2 11,7 31,4 27,3 18,9 14 8 37 20 W 1010,7 48 60 0,0
15.06.2018 18:00:00 29,3 12,7 29,6 27,0 18,9 16 9 26 14 W 1010,9 53 38 0,0
15.06.2018 17:00:00 29,2 13,4 33,9 26,3 18,9 19 11 25 14 WNW 1011,0 31 60 0,0
15.06.2018 16:00:00 29,1 12,1 34,4 25,4 18,9 19 11 28 15 W 1011,3 22 60 0,0
15.06.2018 15:00:00 28,2 12,5 33,1 24,3 18,9 15 8 21 12 W 1011,4 36 60 0,0
15.06.2018 14:00:00 27,2 12,4 32,1 23,3 18,9 17 9 24 13 W 1011,8 40 60 0,0
15.06.2018 13:00:00 25,9 14,4 27,8 22,5 18,9 19 11 29 16 W 1011,7 48 57 0,0
15.06.2018 12:00:00 24,8 13,7 25,9 21,9 18,9 16 9 28 15 W 1011,9 59 21 0,0
15.06.2018 11:00:00 24,2 13,1 25,8 21,5 18,9 18 10 27 15 WNW 1011,8 53 45 0,0
15.06.2018 10:00:00 23,2 11,9 25,3 21,1 18,9 17 9 26 14 NW 1011,9 53 28 0,0
15.06.2018 09:00:00 21,7 11,7 21,3 21,0 18,9 11 6 25 14 N 1011,7 52 52 0,0
15.06.2018 08:00:00 19,6 11,1 19,6 21,2 18,9 14 7 23 13 N 1011,4 48 26 0,0
15.06.2018 07:00:00 19,3 10,8 17,4 21,5 18,9 11 6 31 17 N 1011,2 52 21 0,0
15.06.2018 06:00:00 18,9 10,5 17,3 21,8 18,9 9 5 12 7 N 1011,0 57 0 0,0
15.06.2018 05:00:00 19,1 10,4 17,0 22,2 18,9 7 4 22 12 ENE 1010,4 59 0 0,0
15.06.2018 04:00:00 19,9 10,6 18,7 22,5 18,9 15 8 22 12 NNW 1010,3 59 0 0,0
15.06.2018 03:00:00 20,0 10,4 19,0 22,9 18,9 13 7 23 13 NNW 1010,3 60 0 0,0
15.06.2018 02:00:00 20,5 10,6 19,7 23,4 18,9 16 8 29 16 NNW 1010,5 56 0 0,0
15.06.2018 01:00:00 21,0 10,8 20,2 23,8 18,9 20 11 36 20 NNW 1010,8 60 0 0,0
15.06.2018 00:00:00 21,6 10,4 21,0 24,3 18,9 24 13 46 25 NNW 1010,9 60 0 0,0
14.06.2018 23:00:00 22,3 10,4 21,8 24,8 18,9 37 20 62 34 NNW 1010,8 60 0 0,0
14.06.2018 22:00:00 22,7 10,5 22,2 25,3 18,9 37 20 53 29 NNW 1010,3 59 0 0,0
14.06.2018 21:00:00 23,4 10,8 23,1 25,7 18,9 34 18 55 30 NNW 1009,9 57 22 0,0
14.06.2018 20:00:00 24,9 11,1 26,6 25,9 18,9 37 20 53 29 NW 1009,6 22 60 0,0
14.06.2018 19:00:00 25,9 10,9 28,7 25,8 18,9 35 19 48 26 NNW 1009,4 22 60 0,0
14.06.2018 18:00:00 26,7 11,2 30,8 25,5 18,9 28 15 42 23 NW 1009,5 19 60 0,0
14.06.2018 17:00:00 27,1 11,6 31,8 25,0 18,9 25 14 37 20 NW 1009,6 24 60 0,0
14.06.2018 16:00:00 26,8 10,9 32,2 24,2 18,9 24 13 37 20 NW 1010,0 24 9 0,0
14.06.2018 15:00:00 26,9 11,0 32,2 23,3 18,8 23 12 34 18 NNW 1010,1 26 8 0,0
14.06.2018 14:00:00 26,6 10,7 31,9 22,3 18,9 - - - - - 1010,3 10 60 0,0
14.06.2018 13:00:00 25,5 10,5 29,8 21,4 18,8 20 11 33 18 NW 1010,4 20 60 0,0
14.06.2018 12:00:00 24,8 10,6 28,0 20,6 18,9 20 11 33 18 NW 1010,2 45 60 0,0
14.06.2018 11:00:00 23,3 10,7 26,6 20,0 18,8 17 9 25 14 NNW 1010,1 53 60 0,0
14.06.2018 10:00:00 21,5 10,3 24,7 19,7 18,8 14 7 23 12 NNW 1010,0 56 60 0,0
14.06.2018 09:00:00 19,9 10,6 20,8 19,6 18,8 16 9 30 16 NNW 1010,1 20 60 0,0
14.06.2018 08:00:00 18,4 10,5 18,5 19,8 18,9 19 11 35 19 NW 1009,8 54 60 0,0
14.06.2018 07:00:00 17,5 10,8 16,4 20,0 18,8 25 13 34 18 NW 1009,5 35 38 0,0
14.06.2018 06:00:00 17,2 10,6 16,4 20,3 18,8 22 12 31 17 NW 1009,2 56 0 0,0
14.06.2018 05:00:00 17,4 10,5 16,8 20,6 18,8 19 11 32 17 NW 1009,0 57 0 0,0
14.06.2018 04:00:00 18,0 10,8 17,3 20,9 18,8 22 12 38 21 NW 1008,9 57 0 0,0
14.06.2018 03:00:00 18,4 11,0 17,8 21,2 18,8 23 13 39 21 NW 1008,9 55 0 0,0
14.06.2018 02:00:00 18,8 10,9 18,3 21,5 18,8 30 16 51 27 NW 1008,7 52 0 0,0
14.06.2018 01:00:00 19,3 10,8 18,8 21,9 18,8 34 18 63 34 NW 1008,6 49 0 0,0
14.06.2018 00:00:00 19,8 11,0 19,2 22,2 18,8 41 22 62 33 NW 1008,8 44 0 0,0
13.06.2018 23:00:00 20,2 10,9 19,7 22,6 18,8 44 24 64 35 NW 1008,7 44 0 0,0
13.06.2018 22:00:00 20,5 10,9 20,1 23,0 18,8 48 26 71 39 NW 1008,3 41 0 0,0
13.06.2018 21:00:00 21,3 10,5 21,2 23,3 18,8 48 26 81 44 NW 1008,0 24 17 0,0
13.06.2018 20:00:00 22,3 10,8 22,4 23,4 18,8 53 29 76 41 NW 1007,7 13 20 0,0
13.06.2018 19:00:00 22,9 10,3 24,9 23,3 18,8 54 29 84 45 NW 1007,5 7 60 0,0
13.06.2018 18:00:00 23,5 11,9 25,9 23,1 18,8 58 31 82 45 NNW 1007,2 4,0 60 0,0
13.06.2018 17:00:00 23,6 11,6 25,4 22,7 18,8 56 30 80 43 NNW 1007,3 2,7 53 0,0
13.06.2018 16:00:00 23,6 12,6 24,1 22,4 18,8 53 28 94 51 NNW 1007,2 5 9 0,0
13.06.2018 15:00:00 22,8 12,7 23,3 22,0 18,8 63 34 86 46 NNW 1007,0 5 20 0,0
13.06.2018 14:00:00 21,7 12,5 23,3 21,5 18,8 46 25 77 42 NNW 1007,6 5 42 0,0
13.06.2018 13:00:00 22,4 13,2 23,4 21,2 18,8 50 27 81 44 NNW 1007,2 16 60 0,0
13.06.2018 12:00:00 21,6 13,0 21,3 21,1 18,8 55 30 79 43 NW 1007,1 20 37 0,0
13.06.2018 11:00:00 20,5 14,8 19,5 21,2 18,8 45 24 67 36 NW 1007,3 30 0 0,0
13.06.2018 10:00:00 19,2 14,9 16,8 21,3 18,8 38 21 53 29 NW 1007,4 27 0 0,4
13.06.2018 09:00:00 18,2 15,1 16,7 21,5 18,8 33 18 47 25 WNW 1007,8 14 0 0,8
13.06.2018 08:00:00 18,2 15,1 16,9 21,7 18,8 36 19 57 31 WNW 1007,3 18 0 0,0
13.06.2018 07:00:00 19,2 14,7 18,3 22,0 18,8 39 21 58 31 WNW 1007,1 60 0 0,0
13.06.2018 06:00:00 18,6 14,1 18,1 22,3 18,8 30 16 44 24 WNW 1007,4 60 0 0,0
13.06.2018 05:00:00 18,6 14,1 17,5 22,6 18,8 31 17 42 23 WNW 1007,6 60 0 0,0
13.06.2018 04:00:00 17,7 13,8 17,2 23,1 18,8 14 8 30 16 NW 1007,9 60 0 0,0
13.06.2018 03:00:00 17,7 14,2 17,5 23,5 18,8 19 10 26 14 WNW 1008,2 60 0 0,0
13.06.2018 02:00:00 18,8 14,1 18,2 23,9 18,8 11 6 27 15 WNW 1008,3 60 0 0,0
13.06.2018 01:00:00 20,5 14,8 19,9 24,3 18,8 21 11 28 15 NW 1008,3 60 0 0,0
13.06.2018 00:00:00 20,6 15,6 19,7 24,7 18,7 9 5 23 13 W 1008,5 20 0 0,0
12.06.2018 23:00:00 21,4 15,2 20,8 25,1 18,8 16 9 24 13 WNW 1008,8 60 0 0,0
12.06.2018 22:00:00 21,0 16,2 20,5 25,6 18,8 11 6 23 12 SSW 1008,7 19 0 0,0
12.06.2018 21:00:00 21,2 15,7 21,1 26,0 18,8 12 6 20 11 SSW 1008,6 60 0 0,0
12.06.2018 20:00:00 21,7 15,1 22,0 26,2 18,7 14 7 30 16 SW 1008,6 57 5 0,0
12.06.2018 19:00:00 22,6 14,2 23,7 26,2 18,7 16 9 30 16 SSW 1008,4 58 22 0,0
12.06.2018 18:00:00 24,8 12,4 25,9 25,9 18,8 20 11 29 16 SSW 1008,4 47 43 0,0
12.06.2018 17:00:00 25,3 13,5 29,9 25,5 18,7 18 10 34 18 SW 1008,6 38 60 0,0
12.06.2018 16:00:00 25,5 13,0 27,8 24,8 18,7 22 12 35 19 SSW 1008,6 45 19 0,0
12.06.2018 15:00:00 26,4 11,3 30,8 24,0 18,7 24 13 33 18 SW 1008,4 47 0 0,0
12.06.2018 14:00:00 26,7 14,1 30,6 23,1 18,7 13 7 24 13 WSW 1008,8 56 0 0,0
12.06.2018 13:00:00 25,0 15,3 28,1 22,3 18,7 6 4 12 6 W 1009,4 58 37 0,0

tt = Température de l'air
td = dewpoint
tt 5cm = Température de l'air 5cm
tt -20cm = Température de l'air -20cm
tt -100cm = Température de l'air -100cm
ff = Vitesse du vent
fx = gusts
dd = Direction du vent
ppp = reduced air pressure
vv = visibility
sd = Ensoleillement
rr = Quantités de précipitations

stations d'obs. à proximité